Stations météo

réclame
Mon MeteoGroup
Bastia, France (7790): Température de l'air & dewpoint: 14.09.2020 19:00:00 - 20.09.2020 19:00:00 (CEST)Bastia, France (7790): Température de l'air 5cm: 14.09.2020 19:00:00 - 20.09.2020 19:00:00 (CEST)Bastia, France (7790): Température de l'air -20cm & Température de l'air -100cm: 14.09.2020 19:00:00 - 20.09.2020 19:00:00 (CEST)Bastia, France (7790): Vitesse du vent & gusts: 14.09.2020 19:00:00 - 20.09.2020 19:00:00 (CEST)Bastia, France (7790): Direction du vent: 14.09.2020 19:00:00 - 20.09.2020 19:00:00 (CEST)Bastia, France (7790): reduced air pressure: 14.09.2020 19:00:00 - 20.09.2020 19:00:00 (CEST)Bastia, France (7790): visibility: 14.09.2020 19:00:00 - 20.09.2020 19:00:00 (CEST)Bastia, France (7790): Ensoleillement: 14.09.2020 19:00:00 - 20.09.2020 19:00:00 (CEST)Bastia, France (7790): Quantités de précipitations: 14.09.2020 19:00:00 - 20.09.2020 19:00:00 (CEST)
Date & Time tt [°C] td [°C] tt 5cm [°C] tt -20cm [°C] tt -100cm [°C] ff [km/h] ff [knt] fx [km/h] fx [knt] dd ppp [hPa] vv [km] sd [min] rr [mm]
20.09.2020 19:00:00 22,6 19,0 21,0 25,0 24,3 8 4 16 9 W 1014,3 55 42 0,0
20.09.2020 18:00:00 21,8 20,1 20,1 25,0 24,3 8 4 18 10 SSW 1014,1 15 18 0,6
20.09.2020 17:00:00 21,2 18,9 20,8 25,0 24,3 8 4 21 11 W 1014,8 45 0 0,0
20.09.2020 16:00:00 20,3 18,4 18,9 25,0 24,3 9 5 16 9 NNW 1015,3 4,5 0 11,3
20.09.2020 15:00:00 21,7 19,4 20,2 24,9 24,3 7 4 27 15 E 1014,9 2,1 0 3,9
20.09.2020 14:00:00 21,3 19,0 20,9 24,9 24,3 19 10 51 28 NNW 1013,8 2,1 0 5,7
20.09.2020 13:00:00 25,9 21,3 27,3 25,0 24,3 8 4 21 11 ENE 1014,1 8 18 0,0
20.09.2020 12:00:00 26,6 20,9 29,8 25,0 24,3 6 3 16 8 E 1014,9 18 15 0,0
20.09.2020 11:00:00 25,8 20,1 27,9 25,1 24,3 6 3 13 7 ESE 1015,0 19 33 0,0
20.09.2020 10:00:00 24,6 19,4 21,6 25,1 24,3 4 2 11 6 ESE 1015,3 18 13 0,0
20.09.2020 09:00:00 21,4 17,8 19,0 25,2 24,2 4 2 12 7 SW 1015,1 16 0 0,0
20.09.2020 08:00:00 20,3 16,9 18,5 25,2 24,3 8 4 16 9 SW 1015,2 16 0 0,0
20.09.2020 07:00:00 19,5 17,3 17,6 25,3 24,3 5 3 11 6 SSW 1015,6 12 0 0,0
20.09.2020 06:00:00 19,2 17,0 17,1 25,3 24,3 4 2 9 5 WSW 1014,8 13 0 0,0
20.09.2020 05:00:00 19,1 16,1 17,1 25,4 24,3 6 4 12 6 SSW 1015,0 15 0 -
20.09.2020 04:00:00 19,7 16,0 16,6 25,4 24,3 4 2 10 5 WSW 1015,2 17 0 -
20.09.2020 03:00:00 19,8 15,9 16,4 25,5 24,3 4 2 16 8 WSW 1015,3 18 - 0,0
20.09.2020 02:00:00 19,2 16,1 16,5 25,5 24,3 6 3 11 6 SSW 1015,5 16 0 0,0
20.09.2020 01:00:00 19,5 16,5 17,0 25,5 24,3 4 2 9 5 SW 1015,7 16 0 0,0
20.09.2020 00:00:00 19,7 16,3 16,4 25,5 24,3 7 4 10 5 WSW 1016,1 17 0 -
19.09.2020 23:00:00 19,8 16,8 16,6 25,5 24,3 6 3 10 5 SSW 1016,2 17 0 0,0
19.09.2020 22:00:00 20,9 16,7 17,5 25,5 24,3 3 2 7 4 W 1016,3 18 0 0,0
19.09.2020 21:00:00 21,1 17,7 18,3 25,4 24,3 5 3 7 4 WSW 1016,1 15 0 0,0
19.09.2020 20:00:00 21,9 18,5 18,8 25,3 24,3 4 2 11 6 S 1016,0 4,9 0 0,0
19.09.2020 19:00:00 24,8 17,0 23,5 25,3 24,3 5 3 13 7 ESE 1016,2 20 48 0,0
19.09.2020 18:00:00 26,2 17,0 26,0 25,2 24,3 8 4 16 9 SSE 1016,3 22 28 0,0
19.09.2020 17:00:00 25,5 18,7 27,6 25,1 24,3 6 3 16 9 ESE 1016,4 22 13 0,0
19.09.2020 16:00:00 27,3 18,3 33,7 25,1 24,3 10 5 19 10 E 1016,4 21 43 0,0
19.09.2020 15:00:00 27,7 18,1 38,1 25,0 24,3 9 5 19 10 E 1017,1 21 60 0,0
19.09.2020 14:00:00 28,4 17,0 36,7 25,1 24,3 10 5 22 12 E 1017,4 19 60 0,0
19.09.2020 13:00:00 27,4 18,1 34,3 25,1 24,3 11 6 18 10 ESE 1017,7 19 35 0,0
19.09.2020 12:00:00 27,9 18,9 28,7 25,1 24,3 9 5 22 12 ESE 1017,9 11 17 0,0
19.09.2020 11:00:00 26,0 17,9 28,1 25,2 24,3 4 2 11 6 SSE 1018,1 22 5 0,0
19.09.2020 10:00:00 25,2 16,1 22,7 25,2 24,3 5 3 9 5 SSW 1018,4 24 15 0,0
19.09.2020 09:00:00 22,0 14,9 19,9 25,3 24,3 7 4 10 5 SSW 1018,3 25 0 0,0
19.09.2020 08:00:00 21,0 14,9 15,0 25,4 24,3 8 4 12 7 SSW 1018,0 25 31 0,0
19.09.2020 07:00:00 19,3 13,9 15,0 25,5 24,4 8 4 12 6 SW 1017,5 22 0 0,0
19.09.2020 06:00:00 19,1 13,9 15,3 25,5 24,3 8 4 11 6 SSW 1017,5 22 0 0,0
19.09.2020 05:00:00 19,0 14,9 16,1 25,6 24,4 7 4 11 6 SSW 1017,7 22 0 0,0
19.09.2020 04:00:00 19,5 14,3 15,9 25,7 24,3 10 5 13 7 SW 1017,8 24 0 -
19.09.2020 03:00:00 19,4 14,6 16,2 25,7 24,4 8 4 13 7 SW 1018,1 24 0 -
19.09.2020 02:00:00 - - 15,9 25,7 24,4 9 5 14 7 SW - 24 0 -
19.09.2020 01:00:00 20,6 14,3 16,0 25,8 24,4 8 5 15 8 WSW 1018,5 25 0 0,0
19.09.2020 00:00:00 20,4 15,2 16,3 25,8 24,4 8 4 16 9 SSW 1018,5 22 0 0,0
18.09.2020 23:00:00 21,7 14,6 16,3 25,7 24,3 8 5 15 8 SW 1018,4 27 0 0,0
18.09.2020 22:00:00 21,5 15,1 16,6 25,7 24,4 8 4 11 6 SW 1018,3 24 0 0,0
18.09.2020 21:00:00 21,4 16,4 17,1 25,6 24,4 3 2 11 6 S 1017,9 18 0 0,0
18.09.2020 20:00:00 22,3 18,5 19,0 25,5 24,4 8 4 16 9 SSW 1017,6 16 0 0,0
18.09.2020 19:00:00 25,8 18,7 23,9 25,5 24,4 11 6 19 10 NNW 1017,4 21 49 0,0
18.09.2020 18:00:00 27,7 17,2 29,0 25,3 24,4 13 7 23 13 NNW 1017,2 27 60 0,0
18.09.2020 17:00:00 28,7 16,9 33,5 25,2 24,3 14 8 24 13 NNW 1017,2 36 60 0,0
18.09.2020 16:00:00 29,7 15,4 38,9 25,2 24,4 13 7 24 13 N 1017,6 25 60 0,0
18.09.2020 15:00:00 30,3 15,6 37,4 25,1 24,4 16 9 32 18 NNE 1017,8 25 60 0,0
18.09.2020 14:00:00 30,1 15,8 37,8 25,1 24,4 16 8 36 19 NNE 1018,4 27 60 0,0
18.09.2020 13:00:00 29,0 16,2 36,4 25,2 24,4 16 9 35 19 NNE 1018,6 26 60 0,0
18.09.2020 12:00:00 29,2 15,7 35,0 25,2 24,4 11 6 25 13 NNE 1018,8 27 60 0,0
18.09.2020 11:00:00 29,2 16,7 29,9 25,3 24,4 11 6 23 12 N 1018,9 20 60 0,0
18.09.2020 10:00:00 26,9 17,1 23,6 25,3 24,4 7 4 12 6 S 1018,3 20 60 0,0
18.09.2020 09:00:00 23,4 16,0 18,6 25,5 24,4 8 5 11 6 SW 1017,8 23 60 0,0
18.09.2020 08:00:00 20,6 14,9 16,0 25,5 24,4 9 5 13 7 SW 1017,4 20 34 0,0
18.09.2020 07:00:00 20,1 14,5 15,3 25,6 24,4 8 5 14 7 SSW 1016,9 21 0 0,0
18.09.2020 06:00:00 20,2 14,6 15,5 25,6 24,4 6 3 11 6 SW 1016,6 21 0 -
18.09.2020 05:00:00 20,5 14,8 16,5 25,7 24,4 7 4 14 8 SSW 1016,6 21 0 0,0
18.09.2020 04:00:00 21,2 15,1 16,4 25,7 24,4 9 5 13 7 SW 1016,7 21 0 0,0
18.09.2020 03:00:00 21,1 15,6 16,8 25,8 24,4 8 4 11 6 SW 1016,7 19 0 0,0
18.09.2020 02:00:00 21,5 16,2 17,3 25,8 24,4 8 4 13 7 SSW 1016,9 20 0 0,0
18.09.2020 01:00:00 22,2 16,2 17,2 25,8 24,4 6 4 14 8 SW 1016,8 21 0 0,0
18.09.2020 00:00:00 22,7 15,5 17,4 25,8 24,4 6 3 13 7 WSW 1016,7 18 0 0,0
17.09.2020 23:00:00 23,9 16,2 19,0 25,8 24,4 10 5 18 10 SW 1016,6 22 0 -
17.09.2020 22:00:00 24,4 16,1 17,5 25,8 24,4 11 6 15 8 SW 1016,5 22 0 0,0
17.09.2020 21:00:00 21,8 17,0 17,6 25,7 24,4 6 3 8 4 SW 1016,0 18 0 0,0
17.09.2020 20:00:00 23,9 18,3 19,3 25,6 24,4 4 2 16 9 SW 1015,3 2,7 0 0,0
17.09.2020 19:00:00 27,5 15,8 24,6 25,5 24,4 13 7 21 11 NW 1015,2 25 52 0,0
17.09.2020 18:00:00 29,2 17,1 29,9 25,3 24,4 11 6 21 12 N 1014,6 27 60 0,0
17.09.2020 17:00:00 28,9 18,1 33,6 25,3 24,4 16 9 25 13 N 1014,7 37 60 0,0
17.09.2020 16:00:00 29,8 16,9 37,4 25,2 24,4 13 7 21 11 NE 1014,8 19 60 0,0
17.09.2020 15:00:00 29,8 15,9 38,0 25,2 24,4 10 5 24 13 N 1015,2 20 60 0,0
17.09.2020 14:00:00 29,1 17,3 37,5 25,2 24,4 13 7 28 15 NE 1015,6 28 60 0,0
17.09.2020 13:00:00 30,2 15,9 36,6 25,2 24,4 10 6 26 14 NNE 1015,5 29 60 0,0
17.09.2020 12:00:00 29,5 15,6 34,8 25,2 24,4 10 5 21 11 NE 1015,9 29 60 0,0
17.09.2020 11:00:00 28,8 15,0 29,9 25,3 24,4 9 5 23 12 NE 1015,9 19 60 0,0
17.09.2020 10:00:00 26,7 14,8 23,9 25,4 24,4 11 6 26 14 SW 1015,7 25 60 0,0
17.09.2020 09:00:00 23,5 13,9 20,2 25,4 24,4 16 9 27 15 SW 1015,4 26 60 0,0
17.09.2020 08:00:00 21,6 13,8 18,9 25,5 24,4 15 8 27 15 SW 1015,0 25 35 0,0
17.09.2020 07:00:00 22,0 13,4 19,2 25,6 24,4 16 8 30 16 WSW 1014,8 26 0 0,0
17.09.2020 06:00:00 22,5 13,3 19,1 25,7 24,4 16 9 25 13 SW 1014,6 25 0 0,0
17.09.2020 05:00:00 22,9 13,7 20,1 25,7 24,4 15 8 28 15 SW 1014,6 25 0 0,0
17.09.2020 04:00:00 22,9 13,9 19,4 25,8 24,4 18 10 28 15 SW 1014,8 24 0 0,0
17.09.2020 03:00:00 22,9 14,5 19,3 25,8 24,4 15 8 23 13 SW 1015,4 24 0 0,0
17.09.2020 02:00:00 23,0 14,8 17,3 25,8 24,4 15 8 25 13 SW 1015,5 24 0 0,0
17.09.2020 01:00:00 22,7 15,0 15,8 25,8 24,4 12 6 20 11 WSW 1015,7 24 0 0,0
17.09.2020 00:00:00 21,2 15,1 16,0 25,8 24,4 8 4 11 6 W 1016,0 19 0 0,0
16.09.2020 23:00:00 21,5 16,2 16,5 25,8 24,4 6 3 9 5 SSW 1016,2 19 0 0,0
16.09.2020 22:00:00 21,2 17,0 17,4 25,8 24,4 2 1 11 6 W 1016,1 10 0 0,0
16.09.2020 21:00:00 21,5 17,5 18,0 25,7 24,5 6 3 9 5 S 1015,8 13 0 0,0
16.09.2020 20:00:00 23,3 19,5 19,9 25,6 24,5 4 2 8 4 S 1015,3 4,7 0 0,0
16.09.2020 19:00:00 25,6 19,0 24,4 25,5 24,5 8 4 12 6 NE 1015,1 19 29 0,0
16.09.2020 18:00:00 27,9 18,0 29,5 25,4 24,5 7 4 21 12 N 1015,3 23 60 0,0
16.09.2020 17:00:00 28,2 18,6 34,2 25,3 24,4 9 5 21 11 N 1015,6 24 60 0,0
16.09.2020 16:00:00 28,2 19,2 38,6 25,2 24,4 12 7 26 14 N 1016,0 20 60 0,0
16.09.2020 15:00:00 28,5 19,7 38,1 25,2 24,4 17 9 28 15 N 1016,3 19 60 0,0
16.09.2020 14:00:00 28,5 19,4 36,9 25,2 24,5 18 10 32 18 N 1016,9 20 60 0,0
16.09.2020 13:00:00 28,8 20,3 36,1 25,2 24,5 19 11 29 16 N 1017,1 20 60 0,0
16.09.2020 12:00:00 28,7 20,2 33,7 25,2 24,5 18 10 28 15 N 1017,5 19 60 0,0
16.09.2020 11:00:00 28,3 18,7 30,5 25,3 24,5 14 7 29 16 NNE 1017,7 27 60 0,0
16.09.2020 10:00:00 27,3 17,8 24,5 25,4 24,5 5 3 11 6 S 1018,0 25 60 0,0
16.09.2020 09:00:00 24,2 15,9 19,4 25,4 24,5 6 4 13 7 SSW 1017,8 20 60 0,0
16.09.2020 08:00:00 22,0 14,9 16,9 25,5 24,5 6 4 16 9 SSW 1017,8 22 37 0,0
16.09.2020 07:00:00 20,8 14,2 16,2 25,6 24,5 8 4 14 8 SSW 1017,4 22 0 0,0
16.09.2020 06:00:00 21,2 14,1 16,7 25,7 24,5 6 3 13 7 SSW 1017,3 25 0 -
16.09.2020 05:00:00 21,7 13,8 17,9 25,7 24,5 6 4 19 11 SSW 1017,3 24 0 -
16.09.2020 04:00:00 23,0 13,7 17,6 25,8 24,5 10 5 19 11 WSW 1017,4 25 0 -
16.09.2020 03:00:00 22,8 13,6 18,7 25,8 24,5 10 5 19 10 WSW 1017,8 25 - 0,0
16.09.2020 02:00:00 23,5 13,9 19,9 25,8 24,5 10 5 23 12 SW 1018,1 24 0 0,0
16.09.2020 01:00:00 23,8 13,9 20,7 25,9 24,5 16 8 23 12 SW 1018,2 24 0 0,0
16.09.2020 00:00:00 24,1 14,5 20,1 25,9 24,5 16 9 27 15 SW 1018,3 24 0 0,0
15.09.2020 23:00:00 24,0 14,4 17,2 25,9 24,5 16 9 24 13 WSW 1018,4 23 0 0,0
15.09.2020 22:00:00 22,7 15,0 16,9 25,8 24,5 10 5 18 10 WSW 1018,6 21 0 0,0
15.09.2020 21:00:00 22,1 15,4 17,2 25,8 24,5 3 1 10 5 W 1018,5 21 0 -
15.09.2020 20:00:00 22,7 16,7 18,5 25,7 24,5 6 4 16 8 SW 1018,0 18 0 0,0
15.09.2020 19:00:00 27,0 15,4 23,7 25,6 24,5 5 3 16 9 NNW 1017,8 27 29 0,0
15.09.2020 18:00:00 28,7 15,9 30,1 25,5 24,5 11 6 22 12 N 1017,9 24 60 0,0
15.09.2020 17:00:00 28,6 15,8 32,4 25,4 24,5 14 8 24 13 N 1018,0 25 49 0,0
15.09.2020 16:00:00 29,1 17,0 36,5 25,3 24,5 18 10 29 16 N 1018,4 22 60 0,0
15.09.2020 15:00:00 28,7 15,9 37,4 25,3 24,5 19 10 28 15 N 1018,9 22 58 0,0
15.09.2020 14:00:00 28,6 16,8 37,0 25,3 24,5 17 9 29 16 N 1019,6 20 60 0,0
15.09.2020 13:00:00 28,7 18,2 34,2 25,3 24,6 16 9 30 16 N 1020,5 25 54 0,0
15.09.2020 12:00:00 28,0 18,1 30,3 25,4 24,6 19 10 29 16 N 1021,0 27 46 0,0
15.09.2020 11:00:00 28,2 18,3 31,2 25,4 24,5 18 10 29 16 N 1021,1 17 60 0,0
15.09.2020 10:00:00 27,9 16,8 26,6 25,5 24,6 18 10 27 15 NNW 1021,1 17 60 0,0
15.09.2020 09:00:00 25,2 17,7 20,2 25,6 24,5 5 3 11 6 SSW 1020,8 20 60 0,0
15.09.2020 08:00:00 21,2 15,9 16,2 25,6 24,5 6 4 12 7 SW 1020,9 16 37 0,0
15.09.2020 07:00:00 19,4 15,3 16,0 25,7 24,5 8 5 11 6 SSW 1020,7 16 0 0,0
15.09.2020 06:00:00 19,1 15,8 16,4 25,8 24,6 8 4 11 6 SW 1020,6 16 0 0,0
15.09.2020 05:00:00 19,6 15,9 16,9 25,8 24,6 8 4 12 6 SW 1020,8 17 0 -
15.09.2020 04:00:00 19,9 16,1 17,2 25,9 24,5 8 5 12 7 SSW 1020,9 17 0 0,0
15.09.2020 03:00:00 20,5 16,1 17,2 25,9 24,6 9 5 11 6 SW 1021,3 19 - 0,0
15.09.2020 02:00:00 20,9 16,3 17,6 25,9 24,6 6 4 11 6 SW 1021,7 20 0 0,0
15.09.2020 01:00:00 21,4 15,7 18,1 25,9 24,6 8 4 10 5 SW 1021,9 21 0 0,0
15.09.2020 00:00:00 21,3 16,3 18,3 25,9 24,6 7 4 11 6 SSW 1022,0 21 0 0,0
14.09.2020 23:00:00 23,0 15,8 18,4 25,9 24,6 8 4 13 7 W 1022,0 23 0 0,0
14.09.2020 22:00:00 22,5 15,8 18,8 25,9 24,6 8 4 11 6 WSW 1022,1 23 0 0,0
14.09.2020 21:00:00 23,5 16,5 19,7 25,8 24,6 6 4 14 7 SW 1021,7 23 0 0,0
14.09.2020 20:00:00 25,9 16,2 21,4 25,7 24,6 6 3 14 8 N 1021,4 19 12 0,0
14.09.2020 19:00:00 29,0 15,9 27,3 25,6 24,6 9 5 19 10 NW 1021,2 25 60 0,0

tt = Température de l'air
td = dewpoint
tt 5cm = Température de l'air 5cm
tt -20cm = Température de l'air -20cm
tt -100cm = Température de l'air -100cm
ff = Vitesse du vent
fx = gusts
dd = Direction du vent
ppp = reduced air pressure
vv = visibility
sd = Ensoleillement
rr = Quantités de précipitations

stations d'obs. à proximité